Wetterdaten: Montag, 06.09.2010
Datum Zeit Temp. A. Feuchte A. Luftdruck Regen Wind Richtung Richtung Sonnenschein UV Solar Windben
06.09.2010 00:00 10,4 C 85 % 1022,4 hPa 0,0 mm 0,0 km/h (0 Bft) O 90 0 min 0 UV-I 0 W/m 1,6 km/h (1 Bft)
06.09.2010 00:10 10,3 C 85 % 1022,3 hPa 0,0 mm 0,0 km/h (0 Bft) O 90 0 min 0 UV-I 0 W/m 1,6 km/h (1 Bft)
06.09.2010 00:20 10,3 C 85 % 1022,4 hPa 0,0 mm 0,0 km/h (0 Bft) O 90 0 min 0 UV-I 0 W/m 1,6 km/h (1 Bft)
06.09.2010 00:30 10,2 C 85 % 1022,4 hPa 0,0 mm 0,0 km/h (0 Bft) O 90 0 min 0 UV-I 0 W/m 3,2 km/h (1 Bft)
06.09.2010 00:40 10,3 C 85 % 1022,5 hPa 0,0 mm 0,0 km/h (0 Bft) O 90 0 min 0 UV-I 0 W/m 4,8 km/h (1 Bft)
06.09.2010 00:50 10,3 C 84 % 1022,4 hPa 0,0 mm 0,0 km/h (0 Bft) O 90 0 min 0 UV-I 0 W/m 3,2 km/h (1 Bft)
06.09.2010 01:00 10,2 C 84 % 1022,3 hPa 0,0 mm 0,0 km/h (0 Bft) O 90 0 min 0 UV-I 0 W/m 3,2 km/h (1 Bft)
06.09.2010 01:10 10,1 C 85 % 1022,2 hPa 0,0 mm 0,0 km/h (0 Bft) N 0 0 min 0 UV-I 0 W/m 0,0 km/h (0 Bft)
06.09.2010 01:20 9,9 C 84 % 1022,2 hPa 0,0 mm 0,0 km/h (0 Bft) O 90 0 min 0 UV-I 0 W/m 1,6 km/h (1 Bft)
06.09.2010 01:30 9,7 C 85 % 1022,2 hPa 0,0 mm 0,0 km/h (0 Bft) O 90 0 min 0 UV-I 0 W/m 3,2 km/h (1 Bft)
06.09.2010 01:40 9,6 C 85 % 1022,2 hPa 0,0 mm 0,0 km/h (0 Bft) O 90 0 min 0 UV-I 0 W/m 1,6 km/h (1 Bft)
06.09.2010 01:50 9,6 C 85 % 1022,2 hPa 0,0 mm 0,0 km/h (0 Bft) N 0 0 min 0 UV-I 0 W/m 0,0 km/h (0 Bft)
06.09.2010 02:00 9,6 C 85 % 1022,1 hPa 0,0 mm 0,0 km/h (0 Bft) N 0 0 min 0 UV-I 0 W/m 0,0 km/h (0 Bft)
06.09.2010 02:10 9,4 C 85 % 1022,1 hPa 0,0 mm 0,0 km/h (0 Bft) O 90 0 min 0 UV-I 0 W/m 1,6 km/h (1 Bft)
06.09.2010 02:20 9,2 C 85 % 1022,0 hPa 0,0 mm 0,0 km/h (0 Bft) N 0 0 min 0 UV-I 0 W/m 0,0 km/h (0 Bft)
06.09.2010 02:30 9,0 C 86 % 1022,0 hPa 0,0 mm 0,0 km/h (0 Bft) N 0 0 min 0 UV-I 0 W/m 0,0 km/h (0 Bft)
06.09.2010 02:40 8,9 C 86 % 1021,9 hPa 0,0 mm 0,0 km/h (0 Bft) N 0 0 min 0 UV-I 0 W/m 0,0 km/h (0 Bft)
06.09.2010 02:50 8,8 C 87 % 1021,9 hPa 0,0 mm 0,0 km/h (0 Bft) N 0 0 min 0 UV-I 0 W/m 0,0 km/h (0 Bft)
06.09.2010 03:00 8,8 C 87 % 1021,9 hPa 0,0 mm 0,0 km/h (0 Bft) O 90 0 min 0 UV-I 0 W/m 1,6 km/h (1 Bft)
06.09.2010 03:10 8,7 C 88 % 1021,9 hPa 0,0 mm 0,0 km/h (0 Bft) O 90 0 min 0 UV-I 0 W/m 1,6 km/h (1 Bft)
06.09.2010 03:20 8,6 C 88 % 1021,8 hPa 0,0 mm 0,0 km/h (0 Bft) O 90 0 min 0 UV-I 0 W/m 1,6 km/h (1 Bft)
06.09.2010 03:30 8,5 C 88 % 1021,7 hPa 0,0 mm 0,0 km/h (0 Bft) O 90 0 min 0 UV-I 0 W/m 1,6 km/h (1 Bft)
06.09.2010 03:40 8,4 C 88 % 1021,6 hPa 0,0 mm 0,0 km/h (0 Bft) O 90 0 min 0 UV-I 0 W/m 1,6 km/h (1 Bft)
06.09.2010 03:50 8,3 C 89 % 1021,6 hPa 0,0 mm 0,0 km/h (0 Bft) O 90 0 min 0 UV-I 0 W/m 3,2 km/h (1 Bft)
06.09.2010 04:00 8,3 C 88 % 1021,5 hPa 0,0 mm 0,0 km/h (0 Bft) O 90 0 min 0 UV-I 0 W/m 3,2 km/h (1 Bft)
06.09.2010 04:10 8,4 C 88 % 1021,5 hPa 0,0 mm 0,0 km/h (0 Bft) O 90 0 min 0 UV-I 0 W/m 1,6 km/h (1 Bft)
06.09.2010 04:20 8,6 C 88 % 1021,4 hPa 0,0 mm 0,0 km/h (0 Bft) O 90 0 min 0 UV-I 0 W/m 4,8 km/h (1 Bft)
06.09.2010 04:30 8,7 C 88 % 1021,4 hPa 0,0 mm 0,0 km/h (0 Bft) O 90 0 min 0 UV-I 0 W/m 3,2 km/h (1 Bft)
06.09.2010 04:40 8,7 C 87 % 1021,2 hPa 0,0 mm 0,0 km/h (0 Bft) O 90 0 min 0 UV-I 0 W/m 3,2 km/h (1 Bft)
06.09.2010 04:50 8,7 C 87 % 1021,2 hPa 0,0 mm 0,0 km/h (0 Bft) O 90 0 min 0 UV-I 0 W/m 4,8 km/h (1 Bft)
06.09.2010 05:00 8,7 C 87 % 1021,0 hPa 0,0 mm 0,0 km/h (0 Bft) O 90 0 min 0 UV-I 0 W/m 3,2 km/h (1 Bft)
06.09.2010 05:10 8,7 C 87 % 1021,1 hPa 0,0 mm 0,0 km/h (0 Bft) O 90 0 min 0 UV-I 0 W/m 4,8 km/h (1 Bft)
06.09.2010 05:20 8,7 C 87 % 1021,0 hPa 0,0 mm 0,0 km/h (0 Bft) O 90 0 min 0 UV-I 0 W/m 4,8 km/h (1 Bft)
06.09.2010 05:30 8,7 C 87 % 1021,0 hPa 0,0 mm 0,0 km/h (0 Bft) O 90 0 min 0 UV-I 0 W/m 3,2 km/h (1 Bft)
06.09.2010 05:40 8,7 C 87 % 1020,9 hPa 0,0 mm 0,0 km/h (0 Bft) O 90 0 min 0 UV-I 0 W/m 4,8 km/h (1 Bft)
06.09.2010 05:50 8,6 C 86 % 1020,9 hPa 0,0 mm 0,0 km/h (0 Bft) O 90 0 min 0 UV-I 0 W/m 1,6 km/h (1 Bft)
06.09.2010 06:00 8,4 C 87 % 1021,0 hPa 0,0 mm 0,0 km/h (0 Bft) O 90 0 min 0 UV-I 0 W/m 1,6 km/h (1 Bft)
06.09.2010 06:10 8,3 C 87 % 1021,0 hPa 0,0 mm 0,0 km/h (0 Bft) N 0 0 min 0 UV-I 0 W/m 0,0 km/h (0 Bft)
06.09.2010 06:20 8,1 C 87 % 1020,9 hPa 0,0 mm 0,0 km/h (0 Bft) O 90 0 min 0 UV-I 0 W/m 3,2 km/h (1 Bft)
06.09.2010 06:30 7,9 C 88 % 1020,9 hPa 0,0 mm 0,0 km/h (0 Bft) N 0 0 min 0 UV-I 0 W/m 0,0 km/h (0 Bft)
06.09.2010 06:40 7,9 C 88 % 1021,1 hPa 0,0 mm 0,0 km/h (0 Bft) O-SO 112 0 min 0 UV-I 0 W/m 3,2 km/h (1 Bft)
06.09.2010 06:50 7,8 C 88 % 1021,1 hPa 0,0 mm 0,0 km/h (0 Bft) O 90 0 min 0 UV-I 0 W/m 1,6 km/h (1 Bft)
06.09.2010 07:00 7,7 C 88 % 1021,1 hPa 0,0 mm 0,0 km/h (0 Bft) N 0 0 min 0 UV-I 7 W/m 0,0 km/h (0 Bft)
06.09.2010 07:10 7,6 C 89 % 1021,2 hPa 0,0 mm 0,0 km/h (0 Bft) O 90 0 min 0 UV-I 11 W/m 1,6 km/h (1 Bft)
06.09.2010 07:20 7,6 C 89 % 1021,3 hPa 0,0 mm 0,0 km/h (0 Bft) O 90 0 min 0 UV-I 25 W/m 1,6 km/h (1 Bft)
06.09.2010 07:30 7,8 C 90 % 1021,3 hPa 0,0 mm 0,0 km/h (0 Bft) O 90 10 min 0 UV-I 58 W/m 3,2 km/h (1 Bft)
06.09.2010 07:40 8,2 C 90 % 1021,3 hPa 0,0 mm 0,0 km/h (0 Bft) O 90 10 min 0 UV-I 79 W/m 6,4 km/h (2 Bft)
06.09.2010 07:50 8,6 C 89 % 1021,3 hPa 0,0 mm 0,0 km/h (0 Bft) O 90 10 min 0 UV-I 102 W/m 3,2 km/h (1 Bft)
06.09.2010 08:00 9,5 C 92 % 1021,3 hPa 0,0 mm 0,7 km/h (0 Bft) O 92 10 min 0 UV-I 120 W/m 8,0 km/h (2 Bft)
06.09.2010 08:10 9,8 C 86 % 1021,2 hPa 0,0 mm 3,2 km/h (1 Bft) O 90 10 min 1 UV-I 139 W/m 11,3 km/h (2 Bft)
06.09.2010 08:20 10,4 C 84 % 1021,2 hPa 0,0 mm 4,8 km/h (1 Bft) O 90 0 min 1 UV-I 121 W/m 14,5 km/h (3 Bft)
06.09.2010 08:30 11,0 C 81 % 1021,2 hPa 0,0 mm 3,2 km/h (1 Bft) O 90 0 min 1 UV-I 118 W/m 11,3 km/h (2 Bft)
06.09.2010 08:40 11,4 C 79 % 1021,2 hPa 0,0 mm 4,8 km/h (1 Bft) O-SO 112 0 min 1 UV-I 116 W/m 12,9 km/h (3 Bft)
06.09.2010 08:50 11,9 C 77 % 1021,1 hPa 0,0 mm 3,2 km/h (1 Bft) O 90 0 min 1 UV-I 116 W/m 11,3 km/h (2 Bft)
06.09.2010 09:00 12,4 C 76 % 1021,1 hPa 0,0 mm 4,8 km/h (1 Bft) O-SO 112 10 min 1 UV-I 195 W/m 16,1 km/h (3 Bft)
06.09.2010 09:10 12,8 C 74 % 1021,1 hPa 0,0 mm 6,4 km/h (2 Bft) O 90 10 min 1 UV-I 218 W/m 17,7 km/h (3 Bft)
06.09.2010 09:20 13,1 C 73 % 1021,1 hPa 0,0 mm 4,8 km/h (1 Bft) O-SO 112 10 min 1 UV-I 237 W/m 14,5 km/h (3 Bft)
06.09.2010 09:30 13,4 C 72 % 1021,0 hPa 0,0 mm 6,4 km/h (2 Bft) O 90 10 min 2 UV-I 281 W/m 19,3 km/h (3 Bft)
06.09.2010 09:40 13,7 C 70 % 1021,1 hPa 0,0 mm 8,0 km/h (2 Bft) O 90 10 min 2 UV-I 306 W/m 20,9 km/h (4 Bft)
06.09.2010 09:50 14,1 C 69 % 1021,0 hPa 0,0 mm 9,7 km/h (2 Bft) O-SO 112 10 min 2 UV-I 336 W/m 24,1 km/h (4 Bft)
06.09.2010 10:00 14,4 C 67 % 1020,9 hPa 0,0 mm 8,0 km/h (2 Bft) O-SO 112 10 min 2 UV-I 396 W/m 20,9 km/h (4 Bft)
06.09.2010 10:10 14,7 C 68 % 1020,8 hPa 0,0 mm 8,0 km/h (2 Bft) O-SO 112 10 min 2 UV-I 411 W/m 22,5 km/h (4 Bft)
06.09.2010 10:20 15,2 C 66 % 1020,9 hPa 0,0 mm 6,4 km/h (2 Bft) O-SO 112 10 min 2 UV-I 410 W/m 19,3 km/h (3 Bft)
06.09.2010 10:30 15,4 C 65 % 1020,8 hPa 0,0 mm 6,4 km/h (2 Bft) O 90 10 min 3 UV-I 436 W/m 16,1 km/h (3 Bft)
06.09.2010 10:40 15,7 C 64 % 1020,7 hPa 0,0 mm 6,4 km/h (2 Bft) O 90 10 min 3 UV-I 496 W/m 16,1 km/h (3 Bft)
06.09.2010 10:50 15,9 C 63 % 1020,7 hPa 0,0 mm 6,4 km/h (2 Bft) O 90 10 min 3 UV-I 503 W/m 17,7 km/h (3 Bft)
06.09.2010 11:00 16,3 C 61 % 1020,6 hPa 0,0 mm 8,0 km/h (2 Bft) O 90 10 min 3 UV-I 504 W/m 20,9 km/h (4 Bft)
06.09.2010 11:10 16,4 C 61 % 1020,6 hPa 0,0 mm 6,4 km/h (2 Bft) O-SO 112 10 min 3 UV-I 490 W/m 19,3 km/h (3 Bft)
06.09.2010 11:20 16,7 C 60 % 1020,3 hPa 0,0 mm 6,4 km/h (2 Bft) O 90 10 min 3 UV-I 503 W/m 19,3 km/h (3 Bft)
06.09.2010 11:30 17,2 C 59 % 1020,1 hPa 0,0 mm 6,4 km/h (2 Bft) O-SO 112 10 min 4 UV-I 541 W/m 17,7 km/h (3 Bft)
06.09.2010 11:40 17,4 C 58 % 1020,0 hPa 0,0 mm 8,0 km/h (2 Bft) O-SO 112 10 min 4 UV-I 578 W/m 19,3 km/h (3 Bft)
06.09.2010 11:50 17,7 C 56 % 1019,8 hPa 0,0 mm 6,4 km/h (2 Bft) O 90 10 min 4 UV-I 589 W/m 22,5 km/h (4 Bft)
06.09.2010 12:00 18,0 C 56 % 1019,8 hPa 0,0 mm 6,4 km/h (2 Bft) O 90 10 min 4 UV-I 589 W/m 17,7 km/h (3 Bft)
06.09.2010 12:10 18,3 C 54 % 1019,6 hPa 0,0 mm 6,4 km/h (2 Bft) O 90 10 min 4 UV-I 566 W/m 19,3 km/h (3 Bft)
06.09.2010 12:20 18,5 C 54 % 1019,4 hPa 0,0 mm 4,8 km/h (1 Bft) O-SO 112 10 min 4 UV-I 547 W/m 20,9 km/h (4 Bft)
06.09.2010 12:30 18,6 C 53 % 1019,3 hPa 0,0 mm 9,7 km/h (2 Bft) O 90 10 min 4 UV-I 526 W/m 24,1 km/h (4 Bft)
06.09.2010 12:40 18,6 C 53 % 1019,1 hPa 0,0 mm 9,7 km/h (2 Bft) O 90 10 min 4 UV-I 540 W/m 24,1 km/h (4 Bft)
06.09.2010 12:50 18,7 C 51 % 1019,0 hPa 0,0 mm 8,0 km/h (2 Bft) O-SO 112 10 min 4 UV-I 578 W/m 22,5 km/h (4 Bft)
06.09.2010 13:00 18,9 C 51 % 1018,9 hPa 0,0 mm 8,0 km/h (2 Bft) O 90 10 min 4 UV-I 619 W/m 25,7 km/h (4 Bft)
06.09.2010 13:10 19,1 C 51 % 1018,7 hPa 0,0 mm 8,0 km/h (2 Bft) O-SO 112 10 min 5 UV-I 626 W/m 27,4 km/h (4 Bft)
06.09.2010 13:20 19,2 C 51 % 1018,7 hPa 0,0 mm 8,0 km/h (2 Bft) O 90 10 min 5 UV-I 626 W/m 19,3 km/h (3 Bft)
06.09.2010 13:30 19,3 C 49 % 1018,4 hPa 0,0 mm 11,3 km/h (2 Bft) O-SO 112 10 min 5 UV-I 608 W/m 25,7 km/h (4 Bft)
06.09.2010 13:40 19,3 C 52 % 1018,3 hPa 0,0 mm 11,3 km/h (2 Bft) O 90 10 min 4 UV-I 582 W/m 24,1 km/h (4 Bft)
06.09.2010 13:50 19,5 C 51 % 1018,2 hPa 0,0 mm 9,7 km/h (2 Bft) O 90 10 min 4 UV-I 566 W/m 27,4 km/h (4 Bft)
06.09.2010 14:00 19,6 C 53 % 1018,0 hPa 0,0 mm 9,7 km/h (2 Bft) O 90 10 min 4 UV-I 571 W/m 24,1 km/h (4 Bft)
06.09.2010 14:10 19,9 C 51 % 1017,7 hPa 0,0 mm 8,0 km/h (2 Bft) O-SO 112 10 min 4 UV-I 580 W/m 19,3 km/h (3 Bft)
06.09.2010 14:20 19,9 C 50 % 1017,5 hPa 0,0 mm 8,0 km/h (2 Bft) O 90 10 min 4 UV-I 603 W/m 20,9 km/h (4 Bft)
06.09.2010 14:30 20,2 C 47 % 1017,4 hPa 0,0 mm 8,0 km/h (2 Bft) O 90 10 min 4 UV-I 615 W/m 24,1 km/h (4 Bft)
06.09.2010 14:40 20,4 C 50 % 1017,3 hPa 0,0 mm 8,0 km/h (2 Bft) O-SO 112 10 min 4 UV-I 610 W/m 20,9 km/h (4 Bft)
06.09.2010 14:50 20,4 C 47 % 1017,2 hPa 0,0 mm 9,7 km/h (2 Bft) O-SO 112 10 min 3 UV-I 594 W/m 22,5 km/h (4 Bft)
06.09.2010 15:00 20,2 C 47 % 1017,1 hPa 0,0 mm 9,7 km/h (2 Bft) O 90 10 min 3 UV-I 557 W/m 25,7 km/h (4 Bft)
06.09.2010 15:10 20,4 C 47 % 1016,9 hPa 0,0 mm 9,7 km/h (2 Bft) O-SO 112 10 min 3 UV-I 529 W/m 24,1 km/h (4 Bft)
06.09.2010 15:20 20,7 C 45 % 1016,9 hPa 0,0 mm 8,0 km/h (2 Bft) O-SO 112 10 min 3 UV-I 531 W/m 20,9 km/h (4 Bft)
06.09.2010 15:30 20,7 C 46 % 1016,7 hPa 0,0 mm 9,7 km/h (2 Bft) O 90 10 min 3 UV-I 541 W/m 22,5 km/h (4 Bft)
06.09.2010 15:40 20,4 C 45 % 1016,7 hPa 0,0 mm 9,7 km/h (2 Bft) O-SO 112 10 min 3 UV-I 526 W/m 25,7 km/h (4 Bft)
06.09.2010 15:50 20,6 C 46 % 1016,5 hPa 0,0 mm 8,0 km/h (2 Bft) O 90 10 min 3 UV-I 524 W/m 20,9 km/h (4 Bft)
06.09.2010 16:00 20,7 C 46 % 1016,4 hPa 0,0 mm 9,7 km/h (2 Bft) O-SO 112 10 min 2 UV-I 496 W/m 25,7 km/h (4 Bft)
06.09.2010 16:10 20,7 C 43 % 1016,0 hPa 0,0 mm 8,0 km/h (2 Bft) O-SO 112 10 min 2 UV-I 446 W/m 17,7 km/h (3 Bft)
06.09.2010 16:20 20,7 C 45 % 1015,9 hPa 0,0 mm 8,0 km/h (2 Bft) O-SO 112 10 min 2 UV-I 424 W/m 20,9 km/h (4 Bft)
06.09.2010 16:30 20,6 C 43 % 1015,8 hPa 0,0 mm 9,7 km/h (2 Bft) O-SO 112 10 min 2 UV-I 448 W/m 27,4 km/h (4 Bft)
06.09.2010 16:40 20,6 C 43 % 1015,8 hPa 0,0 mm 6,4 km/h (2 Bft) O 90 10 min 2 UV-I 471 W/m 19,3 km/h (3 Bft)
06.09.2010 16:50 20,7 C 43 % 1015,6 hPa 0,0 mm 9,7 km/h (2 Bft) O-SO 112 10 min 2 UV-I 469 W/m 25,7 km/h (4 Bft)
06.09.2010 17:00 20,3 C 44 % 1015,6 hPa 0,0 mm 8,0 km/h (2 Bft) O-SO 112 10 min 2 UV-I 464 W/m 20,9 km/h (4 Bft)
06.09.2010 17:10 20,3 C 43 % 1015,3 hPa 0,0 mm 9,7 km/h (2 Bft) O-SO 112 10 min 1 UV-I 454 W/m 24,1 km/h (4 Bft)
06.09.2010 17:20 20,1 C 43 % 1015,3 hPa 0,0 mm 9,7 km/h (2 Bft) O-SO 112 10 min 1 UV-I 411 W/m 27,4 km/h (4 Bft)
06.09.2010 17:30 19,9 C 46 % 1015,1 hPa 0,0 mm 8,0 km/h (2 Bft) O-SO 112 10 min 1 UV-I 385 W/m 19,3 km/h (3 Bft)
06.09.2010 17:40 20,1 C 45 % 1015,0 hPa 0,0 mm 9,7 km/h (2 Bft) O 90 10 min 1 UV-I 359 W/m 24,1 km/h (4 Bft)
06.09.2010 17:50 19,9 C 45 % 1014,9 hPa 0,0 mm 8,0 km/h (2 Bft) O 90 10 min 1 UV-I 334 W/m 24,1 km/h (4 Bft)
06.09.2010 18:00 19,7 C 45 % 1014,9 hPa 0,0 mm 9,7 km/h (2 Bft) O-SO 112 10 min 1 UV-I 294 W/m 22,5 km/h (4 Bft)
06.09.2010 18:10 19,4 C 46 % 1015,0 hPa 0,0 mm 9,7 km/h (2 Bft) O-SO 112 10 min 1 UV-I 281 W/m 27,4 km/h (4 Bft)
06.09.2010 18:20 19,3 C 46 % 1014,8 hPa 0,0 mm 9,7 km/h (2 Bft) O-SO 112 10 min 1 UV-I 248 W/m 24,1 km/h (4 Bft)
06.09.2010 18:30 19,1 C 47 % 1014,8 hPa 0,0 mm 6,4 km/h (2 Bft) O-SO 112 10 min 1 UV-I 223 W/m 20,9 km/h (4 Bft)
06.09.2010 18:40 19,0 C 47 % 1014,7 hPa 0,0 mm 6,4 km/h (2 Bft) O 90 10 min 1 UV-I 193 W/m 20,9 km/h (4 Bft)
06.09.2010 18:50 18,7 C 49 % 1014,7 hPa 0,0 mm 8,0 km/h (2 Bft) O 90 10 min 1 UV-I 162 W/m 22,5 km/h (4 Bft)
06.09.2010 19:00 18,3 C 49 % 1014,8 hPa 0,0 mm 6,4 km/h (2 Bft) O-SO 112 10 min 0 UV-I 137 W/m 24,1 km/h (4 Bft)
06.09.2010 19:10 17,8 C 50 % 1014,7 hPa 0,0 mm 6,4 km/h (2 Bft) O-SO 112 10 min 0 UV-I 107 W/m 16,1 km/h (3 Bft)
06.09.2010 19:20 17,3 C 54 % 1014,6 hPa 0,0 mm 4,8 km/h (1 Bft) O 90 0 min 0 UV-I 33 W/m 19,3 km/h (3 Bft)
06.09.2010 19:30 16,8 C 54 % 1014,5 hPa 0,0 mm 4,8 km/h (1 Bft) O 90 0 min 0 UV-I 25 W/m 17,7 km/h (3 Bft)
06.09.2010 19:40 16,4 C 55 % 1014,4 hPa 0,0 mm 4,8 km/h (1 Bft) O 90 0 min 0 UV-I 18 W/m 16,1 km/h (3 Bft)
06.09.2010 19:50 15,8 C 56 % 1014,5 hPa 0,0 mm 2,2 km/h (1 Bft) O 96 0 min 0 UV-I 5 W/m 9,7 km/h (2 Bft)
06.09.2010 20:00 15,4 C 58 % 1014,5 hPa 0,0 mm 2,6 km/h (1 Bft) O 95 0 min 0 UV-I 0 W/m 9,7 km/h (2 Bft)
06.09.2010 20:10 15,1 C 58 % 1014,4 hPa 0,0 mm 2,3 km/h (1 Bft) O-SO 109 0 min 0 UV-I 0 W/m 9,7 km/h (2 Bft)
06.09.2010 20:20 15,0 C 59 % 1014,4 hPa 0,0 mm 4,2 km/h (1 Bft) O-SO 102 0 min 0 UV-I 0 W/m 12,9 km/h (3 Bft)
06.09.2010 20:30 14,7 C 60 % 1014,5 hPa 0,0 mm 2,8 km/h (1 Bft) O 79 0 min 0 UV-I 0 W/m 9,7 km/h (2 Bft)
06.09.2010 20:40 14,4 C 61 % 1014,4 hPa 0,0 mm 2,9 km/h (1 Bft) O 79 0 min 0 UV-I 0 W/m 11,3 km/h (2 Bft)
06.09.2010 20:50 14,2 C 62 % 1014,3 hPa 0,0 mm 5,3 km/h (1 Bft) O 83 0 min 0 UV-I 0 W/m 16,1 km/h (3 Bft)
06.09.2010 21:00 14,1 C 62 % 1014,3 hPa 0,0 mm 4,5 km/h (1 Bft) O 96 0 min 0 UV-I 0 W/m 16,1 km/h (3 Bft)
06.09.2010 21:10 14,0 C 62 % 1014,1 hPa 0,0 mm 5,4 km/h (1 Bft) O-SO 112 0 min 0 UV-I 0 W/m 16,1 km/h (3 Bft)
06.09.2010 21:20 13,8 C 62 % 1014,0 hPa 0,0 mm 4,9 km/h (1 Bft) O-SO 106 0 min 0 UV-I 0 W/m 14,5 km/h (3 Bft)
06.09.2010 21:30 13,7 C 62 % 1014,0 hPa 0,0 mm 4,8 km/h (1 Bft) O 84 0 min 0 UV-I 0 W/m 12,9 km/h (3 Bft)
06.09.2010 21:40 13,6 C 63 % 1014,1 hPa 0,0 mm 3,4 km/h (1 Bft) O-NO 65 0 min 0 UV-I 0 W/m 14,5 km/h (3 Bft)
06.09.2010 21:50 13,4 C 63 % 1014,1 hPa 0,0 mm 4,3 km/h (1 Bft) O 91 0 min 0 UV-I 0 W/m 14,5 km/h (3 Bft)
06.09.2010 22:00 13,5 C 62 % 1014,1 hPa 0,0 mm 5,4 km/h (1 Bft) O 88 0 min 0 UV-I 0 W/m 17,7 km/h (3 Bft)
06.09.2010 22:10 13,4 C 62 % 1014,0 hPa 0,0 mm 4,1 km/h (1 Bft) O 87 0 min 0 UV-I 0 W/m 16,1 km/h (3 Bft)
06.09.2010 22:20 13,4 C 62 % 1014,0 hPa 0,0 mm 5,2 km/h (1 Bft) O-NO 69 0 min 0 UV-I 0 W/m 17,7 km/h (3 Bft)
06.09.2010 22:30 13,3 C 62 % 1013,9 hPa 0,0 mm 6,3 km/h (2 Bft) O 95 0 min 0 UV-I 0 W/m 17,7 km/h (3 Bft)
06.09.2010 22:40 13,3 C 62 % 1013,8 hPa 0,0 mm 6,4 km/h (2 Bft) O 90 0 min 0 UV-I 0 W/m 19,3 km/h (3 Bft)
06.09.2010 22:50 13,3 C 62 % 1013,8 hPa 0,0 mm 8,0 km/h (2 Bft) O 90 0 min 0 UV-I 0 W/m 20,9 km/h (4 Bft)
06.09.2010 23:00 13,3 C 63 % 1013,7 hPa 0,0 mm 6,4 km/h (2 Bft) O 90 0 min 0 UV-I 0 W/m 19,3 km/h (3 Bft)
06.09.2010 23:10 13,2 C 63 % 1013,5 hPa 0,0 mm 4,8 km/h (1 Bft) O 90 0 min 0 UV-I 0 W/m 19,3 km/h (3 Bft)
06.09.2010 23:20 13,1 C 63 % 1013,3 hPa 0,0 mm 8,0 km/h (2 Bft) O 90 0 min 0 UV-I 0 W/m 22,5 km/h (4 Bft)
06.09.2010 23:30 13,0 C 64 % 1013,3 hPa 0,0 mm 6,4 km/h (2 Bft) O 90 0 min 0 UV-I 0 W/m 17,7 km/h (3 Bft)
06.09.2010 23:40 12,9 C 64 % 1013,3 hPa 0,0 mm 6,4 km/h (2 Bft) O 90 0 min 0 UV-I 0 W/m 17,7 km/h (3 Bft)
06.09.2010 23:50 12,8 C 65 % 1013,3 hPa 0,0 mm 6,4 km/h (2 Bft) O 90 0 min 0 UV-I 0 W/m 20,9 km/h (4 Bft)
_ Min-Zeit 07:10 16:10 23:20 - 00:00 - - - - - 01:10
Minimum _ 7,5 C 43 % 1013,3 hPa - 0,0 km/h (0 Bft) - - - - - 0,0 km/h (0 Bft)
_ Max-Zeit 15:20 08:00 00:40 00:00 13:30 - - 07:30 13:10 13:10 13:10
Maximum _ 20,8 C 92 % 1022,5 hPa 0,0 mm 11,3 km/h
O-SO (2 Bft)
- - 10 min 5 UV-I 626 W/m 27,4 km/h
O-SO (4 Bft)
Durchschnitt _ 14,1 C 67 % 1018,5 hPa #0,0 mm 4,6 km/h (1 Bft) O - #11:10 h 2 UV-I 373 W/m 13,7 km/h (3 Bft)